Simultaneous Nadir Overpasses (SNOs) Predictions

Prediction of SNOs between GOES-16 and AQUA Satellite Orbit:

Table of predicted SNOs for the next 14.0 days since TLE Epoch: 10/17/2020
Index Date Time (GOES-16) GOES-16 Lat,Lon AQUA Lat,Lon Distance(km) Time Diff (sec)
1 10/17/2020 18:23:06 -0.01, -75.19 0.76, -71.67 400.43 80
2 10/18/2020 06:44:21 0.01, -75.18 0.37, -76.82 187.26 80
3 10/20/2020 06:29:29 0.01, -75.18 -0.28, -73.87 148.92 80
4 10/20/2020 18:50:52 -0.01, -75.18 -0.86, -79.05 440.36 80
5 10/22/2020 06:17:16 0.01, -75.18 -0.88, -70.90 485.42 80
6 10/22/2020 18:38:40 -0.01, -75.19 -0.19, -76.10 103.62 80
7 10/24/2020 18:29:07 -0.00, -75.20 0.41, -73.13 233.89 80
8 10/25/2020 06:50:23 0.00, -75.19 0.67, -78.30 353.09 80
9 10/27/2020 06:38:11 0.00, -75.21 0.00, -75.34 14.76 80
10 10/29/2020 06:23:18 0.00, -75.24 -0.61, -72.38 324.99 80
11 10/29/2020 18:44:41 -0.00, -75.25 -0.51, -77.57 263.44 80
